This is the latest recevied weather packets stored in our database for station/object WB4ZUT. If no packets are shown the sender has not sent any weather packets the latest 1 day(s).
| Time | Temp. | Humidity | Pressure | Rain* | Wind** | Luminosity | Snow |
|---|---|---|---|---|---|---|---|
| 1778059139 | 7.22° C | 99% | 1010.8 hPa | 0 mm | - | 0 W/m² | - |
| 1778058232 | 7.22° C | 99% | 1011 hPa | 0 mm | - | 0 W/m² | - |
| 1778057929 | 7.22° C | 99% | 1010.9 hPa | 0 mm | - | 0 W/m² | - |
| 1778057625 | 7.22° C | 99% | 1011.2 hPa | 0 mm | - | 0 W/m² | - |
| 1778057321 | 7.22° C | 99% | 1011 hPa | 0 mm | - | 0 W/m² | - |
| 1778057018 | 7.22° C | 99% | 1010.8 hPa | 0 mm | - | 0 W/m² | - |
| 1778056715 | 7.22° C | 99% | 1010.8 hPa | 0 mm | - | 0 W/m² | - |
| 1778055806 | 7.22° C | 99% | 1010.5 hPa | 0 mm | - | 0 W/m² | - |
| 1778055502 | 7.22° C | 99% | 1010.6 hPa | 0 mm | - | 0 W/m² | - |
| 1778054898 | 7.78° C | 99% | 1010.7 hPa | 0 mm | - | 0 W/m² | - |
| 1778054594 | 7.78° C | 99% | 1010.6 hPa | 0 mm | - | 0 W/m² | - |
| 1778054292 | 7.78° C | 99% | 1010.4 hPa | 0 mm | - | 0 W/m² | - |
| 1778053989 | 7.78° C | 99% | 1010 hPa | 0 mm | - | 0 W/m² | - |
| 1778053686 | 7.78° C | 99% | 1010 hPa | 0 mm | - | 0 W/m² | - |
| 1778053383 | 7.78° C | 99% | 1009.6 hPa | 0 mm | - | 0 W/m² | - |
| 1778052475 | 7.78° C | 99% | 1008.4 hPa | 0 mm | - | 0 W/m² | - |
| 1778052172 | 8.33° C | 99% | 1008.6 hPa | 1.78 mm | - | 0 W/m² | - |
| 1778051870 | 8.33° C | 99% | 1009.3 hPa | 1.78 mm | - | 0 W/m² | - |
| 1778051568 | 8.33° C | 99% | 1009.6 hPa | 1.78 mm | - | 0 W/m² | - |
| 1778049143 | 9.44° C | 99% | 1010.1 hPa | 1.27 mm | - | 0 W/m² | - |
| 1778048842 | 9.44° C | 99% | 1010.2 hPa | 0 mm | - | 0 W/m² | - |
| 1778048234 | 9.44° C | 99% | 1009.5 hPa | 1.78 mm | - | 0 W/m² | - |
| 1778047932 | 9.44° C | 99% | 1009.2 hPa | 3.05 mm | - | 0 W/m² | - |
| 1778047631 | 9.44° C | 99% | 1009.7 hPa | 3.05 mm | - | 0 W/m² | - |
| 1778047327 | 9.44° C | 99% | 1010.4 hPa | 1.78 mm | - | 0 W/m² | - |
* Rain latest hour (hover to see other rain measurements)
** Current wind speed in m/s (hover to see current wind gust speed)